H1 CPF 2 NER 2024 9 19 9 263 01 glonass129 H2 1106402 9129 37868 2024 9 19 0 0 0 2024 9 22 23 45 0 900 1 1 0 0 0 1 H9 10 0 60572 0.00000 0 -11027943.255 2110327.509 22941824.335 10 0 60572 900.00000 0 -10808755.535 -715896.929 23126932.597 10 0 60572 1800.00000 0 -10798418.120 -3546409.171 22864504.729 10 0 60572 2700.00000 0 -10992945.220 -6311313.064 22159384.263 10 0 60572 3600.00000 0 -11376203.518 -8942958.182 21024965.451 10 0 60572 4500.00000 0 -11920614.559 -11378505.619 19482957.093 10 0 60572 5400.00000 0 -12588355.136 -13562303.154 17562987.099 10 0 60572 6300.00000 0 -13333007.466 -15447971.773 15302053.282 10 0 60572 7200.00000 0 -14101591.829 -17000116.639 12743828.740 10 0 60572 8100.00000 0 -14836897.760 -18195590.461 9937833.277 10 0 60572 9000.00000 0 -15480016.588 -19024255.379 6938485.172 10 0 60572 9900.00000 0 -15972968.680 -19489210.002 3804050.594 10 0 60572 10800.00000 0 -16261313.803 -19606470.717 595510.521 10 0 60572 11700.00000 0 -16296632.815 -19404119.507 -2624632.662 10 0 60572 12600.00000 0 -16038773.568 -18920953.455 -5793584.803 10 0 60572 13500.00000 0 -15457763.409 -18204692.801 -8849500.543 10 0 60572 14400.00000 0 -14535304.502 -17309823.746 -11732708.848 10 0 60572 15300.00000 0 -13265786.002 -16295168.302 -14386897.544 10 0 60572 16200.00000 0 -11656767.788 -15221285.566 -16760231.718 10 0 60572 17100.00000 0 -9728913.380 -14147816.205 -18806382.302 10 0 60572 18000.00000 0 -7515373.489 -13130884.397 -20485443.155 10 0 60572 18900.00000 0 -5060645.444 -12220668.835 -21764717.687 10 0 60572 19800.00000 0 -2418956.285 -11459246.760 -22619359.053 10 0 60572 20700.00000 0 347762.234 -10878802.903 -23032851.335 10 0 60572 21600.00000 0 3172221.257 -10500279.043 -22997322.743 10 0 60572 22500.00000 0 5984346.080 -10332520.613 -22513685.539 10 0 60572 23400.00000 0 8713962.942 -10371955.167 -21591601.062 10 0 60572 24300.00000 0 11293488.800 -10602814.573 -20249271.903 10 0 60572 25200.00000 0 13660512.015 -10997889.546 -18513066.692 10 0 60572 26100.00000 0 15760156.886 -11519782.533 -16416986.314 10 0 60572 27000.00000 0 17547134.694 -12122603.996 -14001983.329 10 0 60572 27900.00000 0 18987397.498 -12754038.691 -11315149.130 10 0 60572 28800.00000 0 20059327.957 -13357693.283 -8408785.785 10 0 60572 29700.00000 0 20754418.165 -13875625.273 -5339381.454 10 0 60572 30600.00000 0 21077412.007 -14250946.108 -2166509.915 10 0 60572 31500.00000 0 21045907.883 -14430388.763 1048324.115 10 0 60572 32400.00000 0 20689441.070 -14366732.082 4242871.493 10 0 60572 33300.00000 0 20048086.284 -14020980.634 7355334.385 10 0 60572 34200.00000 0 19170640.619 -13364209.360 10325548.755 10 0 60572 35100.00000 0 18112463.838 -12378996.515 13096131.812 10 0 60572 36000.00000 0 16933066.709 -11060385.518 15613573.568 10 0 60572 36900.00000 0 15693547.865 -9416335.843 17829252.970 10 0 60572 37800.00000 0 14453985.451 -7467643.923 19700360.622 10 0 60572 38700.00000 0 13270891.200 -5247336.577 21190711.987 10 0 60572 39600.00000 0 12194831.827 -2799560.810 22271436.776 10 0 60572 40500.00000 0 11268315.580 -178014.145 22921532.434 10 0 60572 41400.00000 0 10524030.978 2556021.868 23128271.767 10 0 60572 42300.00000 0 9983510.554 5335966.108 22887456.997 10 0 60572 43200.00000 0 9656275.191 8092448.489 22203514.975 10 0 60572 44100.00000 0 9539495.283 10755945.306 21089430.709 10 0 60572 45000.00000 0 9618183.921 13259432.328 19566518.953 10 0 60572 45900.00000 0 9865915.509 15540947.236 17664036.369 10 0 60572 46800.00000 0 10246041.468 17545955.929 15418639.534 10 0 60572 47700.00000 0 10713353.787 19229424.436 12873697.109 10 0 60572 48600.00000 0 11216128.044 20557509.577 10078467.376 10 0 60572 49500.00000 0 11698460.965 21508796.653 7087155.389 10 0 60572 50400.00000 0 12102804.363 22075030.883 3957866.869 10 0 60572 51300.00000 0 12372588.114 22261310.283 751478.599 10 0 60572 52200.00000 0 12454820.120 22085730.363 -2469552.601 10 0 60572 53100.00000 0 12302551.408 21578494.434 -5642418.322 10 0 60572 54000.00000 0 11877099.556 20780526.375 -8705199.156 10 0 60572 54900.00000 0 11149933.564 19741644.381 -11598091.517 10 0 60572 55800.00000 0 10104137.507 18518373.451 -14264594.701 10 0 60572 56700.00000 0 8735388.389 17171490.204 -16652633.003 10 0 60572 57600.00000 0 7052404.525 15763405.345 -18715589.130 10 0 60572 58500.00000 0 5076843.785 14355496.137 -20413227.117 10 0 60572 59400.00000 0 2842654.825 13005503.212 -21712485.625 10 0 60572 60300.00000 0 394908.052 11765103.022 -22588125.533 10 0 60572 61200.00000 0 -2211844.512 10677759.245 -23023219.032 10 0 60572 62100.00000 0 -4915611.243 9776943.998 -23009471.113 10 0 60572 63000.00000 0 -7649318.650 9084803.377 -22547367.936 10 0 60572 63900.00000 0 -10343385.466 8611322.434 -21646150.334 10 0 60572 64800.00000 0 -12928404.997 8354023.004 -20323614.285 10 0 60572 65700.00000 0 -15337823.512 8298204.922 -18605743.687 10 0 60572 66600.00000 0 -17510503.099 8417718.014 -16526184.073 10 0 60572 67500.00000 0 -19393062.807 8676229.790 -14125568.904 10 0 60572 68400.00000 0 -20941901.677 9028933.029 -11450712.828 10 0 60572 69300.00000 0 -22124821.026 9424619.188 -8553688.729 10 0 60572 70200.00000 0 -22922180.479 9808028.595 -5490807.377 10 0 60572 71100.00000 0 -23327541.953 10122377.230 -2321520.113 10 0 60572 72000.00000 0 -23347777.279 10311953.044 892733.758 10 0 60572 72900.00000 0 -23002637.486 10324672.416 4089712.537 10 0 60572 73800.00000 0 -22323803.980 10114489.492 7207568.026 10 0 60572 74700.00000 0 -21353463.055 9643557.786 10186029.255 10 0 60572 75600.00000 0 -20142464.550 8884054.048 12967552.187 10 0 60572 76500.00000 0 -18748142.099 7819588.614 15498414.520 10 0 60572 77400.00000 0 -17231885.913 6446143.656 17729735.920 10 0 60572 78300.00000 0 -15656568.665 4772500.160 19618405.687 10 0 60572 79200.00000 0 -14083930.618 2820135.251 21127901.598 10 0 60572 80100.00000 0 -12572031.514 622593.024 22228985.579 10 0 60572 81000.00000 0 -11172873.766 -1775646.723 22900264.005 10 0 60572 81900.00000 0 -9930294.464 -4320757.181 23128602.548 10 0 60572 82800.00000 0 -8878212.859 -6951547.395 22909387.804 10 0 60572 83700.00000 0 -8039305.629 -9601759.932 22246630.244 10 0 60572 84600.00000 0 -7424165.077 -12202590.916 21152905.569 10 0 60572 85500.00000 0 -7030975.835 -14685330.364 19649134.069 10 0 60573 0.00000 0 -6845724.584 -16984015.065 17764200.546 10 0 60573 900.00000 0 -6842935.323 -19037986.233 15534418.872 10 0 60573 1800.00000 0 -6986901.056 -20794242.993 13002851.943 10 0 60573 2700.00000 0 -7233361.333 -22209497.412 10218494.746 10 0 60573 3600.00000 0 -7531556.458 -23251841.177 7235337.081 10 0 60573 4500.00000 0 -7826572.273 -23901953.907 4111321.969 10 0 60573 5400.00000 0 -8061876.485 -24153800.450 907219.560 10 0 60573 6300.00000 0 -8181938.486 -24014786.022 -2314561.497 10 0 60573 7200.00000 0 -8134820.250 -23505361.039 -5491201.291 10 0 60573 8100.00000 0 -7874626.409 -22658091.113 -8560709.263 10 0 60573 9000.00000 0 -7363707.123 -21516230.861 -11463152.283 10 0 60573 9900.00000 0 -6574517.587 -20131861.756 -14141844.180 10 0 60573 10800.00000 0 -5491052.702 -18563673.368 -16544471.505 10 0 60573 11700.00000 0 -4109793.667 -16874482.808 -18624131.662 10 0 60573 12600.00000 0 -2440124.462 -15128598.616 -20340261.533 10 0 60573 13500.00000 0 -504199.152 -13389141.876 -21659437.349 10 0 60573 14400.00000 0 1663735.299 -11715438.880 -22556029.563 10 0 60573 15300.00000 0 4018532.460 -10160596.254 -23012699.802 10 0 60573 16200.00000 0 6505805.821 -8769361.053 -23020730.587 10 0 60573 17100.00000 0 9063984.007 -7576355.651 -22580182.164 10 0 60573 18000.00000 0 11626675.008 -6604760.680 -21699874.488 10 0 60573 18900.00000 0 14125239.831 -5865499.794 -20397196.028 10 0 60573 19800.00000 0 16491467.517 -5356958.285 -18697744.555 10 0 60573 20700.00000 0 18660239.572 -5065244.807 -16634808.371 10 0 60573 21600.00000 0 20572072.829 -4964982.327 -14248699.489 10 0 60573 22500.00000 0 22175435.383 -5020592.245 -11585953.017 10 0 60573 23400.00000 0 23428740.107 -5188014.969 -8698409.464 10 0 60573 24300.00000 0 24301934.277 -5416792.274 -5642198.691 10 0 60573 25200.00000 0 24777620.958 -5652422.002 -2476645.871 10 0 60573 26100.00000 0 24851667.581 -5838884.753 736878.921 10 0 60573 27000.00000 0 24533278.564 -5921235.606 3936145.176 10 0 60573 27900.00000 0 23844531.121 -5848151.728 7059257.864 10 0 60573 28800.00000 0 22819395.387 -5574329.104 10045842.273 10 0 60573 29700.00000 0 21502281.154 -5062628.314 12838195.894 10 0 60573 30600.00000 0 19946172.526 -4285880.023 15382386.378 10 0 60573 31500.00000 0 18210428.403 -3228275.101 17629275.886 10 0 60573 32400.00000 0 16358339.897 -1886281.474 19535453.686 10 0 60573 33300.00000 0 14454545.285 -269049.175 21064060.673 10 0 60573 34200.00000 0 12562408.619 1601714.124 22185491.356 10 0 60573 35100.00000 0 10741469.289 3692393.337 22877960.990 10 0 60573 36000.00000 0 9045066.860 5958617.006 23127927.700 10 0 60573 36900.00000 0 7518238.449 8346863.793 22930361.656 10 0 60573 37800.00000 0 6195974.937 10796460.593 22288855.816 10 0 60573 38700.00000 0 5101907.954 13241892.191 21215575.111 10 0 60573 39600.00000 0 4247482.298 15615329.274 19731043.617 10 0 60573 40500.00000 0 3631648.807 17849272.054 17863771.914 10 0 60573 41400.00000 0 3241091.451 19879201.206 15649729.645 10 0 60573 42300.00000 0 3050980.389 21646126.591 13131671.284 10 0 60573 43200.00000 0 3026220.705 23098927.484 10358326.060 10 0 60573 44100.00000 0 3123145.467 24196385.795 7383465.967 10 0 60573 45000.00000 0 3291582.587 24908825.712 4264868.726 10 0 60573 45900.00000 0 3477208.420 25219289.158 1063195.253 10 0 60573 46800.00000 0 3624088.174 25124195.598 -2159196.541 10 0 60573 47700.00000 0 3677294.398 24633456.442 -5339477.711 10 0 60573 48600.00000 0 3585490.814 23770037.553 -8415588.853 10 0 60573 49500.00000 0 3303369.605 22568987.129 -11327469.393 10 0 60573 50400.00000 0 2793836.206 21075969.473 -14018249.558 10 0 60573 51300.00000 0 2029846.276 19345366.618 -16435379.761 10 0 60573 52200.00000 0 995814.460 17438028.635 -18531673.470 10 0 60573 53100.00000 0 -311466.880 15418768.645 -20266241.557 10 0 60573 54000.00000 0 -1882439.510 13353709.494 -21605298.753 10 0 60573 54900.00000 0 -3694939.263 11307595.190 -22522825.815 10 0 60573 55800.00000 0 -5714897.881 9341181.330 -23001074.300 10 0 60573 56700.00000 0 -7897557.192 7508814.905 -23030904.485 10 0 60573 57600.00000 0 -10189144.250 5856305.104 -22611950.594 10 0 60573 58500.00000 0 -12528936.422 4419173.893 -21752611.208 10 0 60573 59400.00000 0 -14851629.109 3221358.349 -20469866.366 10 0 60573 60300.00000 0 -17089906.295 2274417.101 -18788926.351 10 0 60573 61200.00000 0 -19177105.856 1577271.650 -16742720.472 10 0 60573 62100.00000 0 -21049868.083 1116490.427 -14371237.194 10 0 60573 63000.00000 0 -22650657.036 867100.589 -11720729.744 10 0 60573 63900.00000 0 -23930050.067 793890.429 -8842803.754 10 0 60573 64800.00000 0 -24848701.103 853144.898 -5793405.605 10 0 60573 65700.00000 0 -25378897.220 994738.922 -2631731.721 10 0 60573 66600.00000 0 -25505645.331 1164498.718 580919.605 10 0 60573 67500.00000 0 -25227245.575 1306730.611 3782331.560 10 0 60573 68400.00000 0 -24555329.394 1366810.427 6910564.731 10 0 60573 69300.00000 0 -23514362.415 1293724.612 9905143.041 10 0 60573 70200.00000 0 -22140634.225 1042456.697 12708207.777 10 0 60573 71100.00000 0 -20480777.946 576119.576 15265618.690 10 0 60573 72000.00000 0 -18589881.538 -132255.125 17527982.384 10 0 60573 72900.00000 0 -16529269.027 -1098345.045 19451589.797 10 0 60573 73800.00000 0 -14364042.929 -2325639.697 20999246.344 10 0 60573 74700.00000 0 -12160488.594 -3805055.587 22140980.172 10 0 60573 75600.00000 0 -9983446.449 -5515080.921 22854616.108 10 0 60573 76500.00000 0 -7893759.358 -7422445.565 23126205.040 10 0 60573 77400.00000 0 -5945899.263 -9483290.597 22950300.673 10 0 60573 78300.00000 0 -4185870.135 -11644791.474 22330078.065 10 0 60573 79200.00000 0 -2649473.283 -13847170.213 21277290.686 10 0 60573 80100.00000 0 -1361006.669 -16026015.710 19812065.414 10 0 60573 81000.00000 0 -332452.430 -18114818.176 17962537.532 10 0 60573 81900.00000 0 436812.932 -20047614.167 15764330.605 10 0 60573 82800.00000 0 959772.608 -21761633.120 13259889.084 10 0 60573 83700.00000 0 1260996.967 -23199835.331 10497674.471 10 0 60573 84600.00000 0 1375375.753 -24313234.780 7531238.803 10 0 60573 85500.00000 0 1346407.472 -25062908.265 4418192.218 10 0 60574 0.00000 0 1224117.675 -25421604.681 1219084.289 10 0 60574 900.00000 0 1062694.166 -25374884.773 -2003780.845 10 0 60574 1800.00000 0 917940.194 -24921740.672 -5187567.434 10 0 60574 2700.00000 0 844654.772 -24074667.666 -8270149.789 10 0 60574 3600.00000 0 894053.356 -22859182.907 -11191342.465 10 0 60574 4500.00000 0 1111340.631 -21312810.485 -13894094.654 10 0 60574 5400.00000 0 1533540.955 -19483575.204 -16325623.141 10 0 60574 6300.00000 0 2187680.939 -17428068.730 -18438459.832 10 0 60574 7200.00000 0 3089403.437 -15209170.374 -20191391.745 10 0 60574 8100.00000 0 4242073.419 -12893519.600 -21550273.961 10 0 60574 9000.00000 0 5636414.819 -10548847.771 -22488698.999 10 0 60574 9900.00000 0 7250694.373 -8241282.488 -22988509.373 10 0 60574 10800.00000 0 9051444.833 -6032738.449 -23040143.678 10 0 60574 11700.00000 0 10994696.818 -3978504.565 -22642810.204 10 0 60574 12600.00000 0 13027666.795 -2125128.128 -21804485.795 10 0 60574 13500.00000 0 15090829.474 -508683.563 -20541741.255 10 0 60574 14400.00000 0 17120286.809 846503.502 -18879398.149 10 0 60574 15300.00000 0 19050333.528 1928625.780 -16850025.132 10 0 60574 16200.00000 0 20816111.267 2738628.150 -14493285.049 10 0 60574 17100.00000 0 22356240.063 3289899.105 -11855146.735 10 0 60574 18000.00000 0 23615317.370 3607436.000 -8986978.058 10 0 60574 18900.00000 0 24546180.780 3726522.237 -5944538.690 10 0 60574 19800.00000 0 25111840.961 3690974.705 -2786892.829 10 0 60574 20700.00000 0 25287005.398 3551037.357 424736.615 10 0 60574 21600.00000 0 25059130.910 3361011.140 3628150.122 10 0 60574 22500.00000 0 24428962.645 3176720.894 6761367.349 10 0 60574 23400.00000 0 23410538.574 3052926.084 9763814.047 10 0 60574 24300.00000 0 22030660.580 3040783.997 12577478.135 10 0 60574 25200.00000 0 20327854.976 3185471.362 15148013.885 10 0 60574 26100.00000 0 18350866.044 3524063.465 17425774.323 10 0 60574 27000.00000 0 16156744.921 4083758.901 19366753.593 10 0 60574 27900.00000 0 13808612.336 4880523.829 20933422.724 10 0 60574 28800.00000 0 11373186.688 5918212.368 22095444.172 10 0 60574 29700.00000 0 8918178.180 7188200.400 22830252.595 10 0 60574 30600.00000 0 6509655.044 8669549.254 23123491.478 10 0 60574 31500.00000 0 4209489.031 10329694.226 22969297.488 10 0 60574 32400.00000 0 2072984.255 12125631.603 22370426.773 10 0 60574 33300.00000 0 146786.291 14005557.441 21338219.916 10 0 60574 34200.00000 0 -1532842.544 15910892.615 19892404.775 10 0 60574 35100.00000 0 -2941310.380 17778612.427 18060739.157 10 0 60574 36000.00000 0 -4066491.659 19543785.843 15878498.071 10 0 60574 36900.00000 0 -4908997.721 21142219.936 13387813.257 10 0 60574 37800.00000 0 -5481909.847 22513099.774 10636875.647 10 0 60574 38700.00000 0 -5809984.830 23601513.147 7679014.404 10 0 60574 39600.00000 0 -5928365.470 24360753.299 4571669.152 10 0 60574 40500.00000 0 -5880849.665 24754301.294 1375274.646 10 0 60574 41400.00000 0 -5717791.013 24757402.467 -1847920.404 10 0 60574 42300.00000 0 -5493720.137 24358168.082 -5035076.680 10 0 60574 43200.00000 0 -5264788.575 23558153.358 -8124004.675 10 0 60574 44100.00000 0 -5086145.256 22372385.315 -11054396.298 10 0 60574 45000.00000 0 -5009358.949 20828837.567 -13769021.637 10 0 60574 45900.00000 0 -5079998.411 18967373.215 -16214865.470 10 0 60574 46800.00000 0 -5335475.303 16838199.967 -18344179.453 10 0 60574 47700.00000 0 -5803243.516 14499902.852 -20115427.770 10 0 60574 48600.00000 0 -6499433.082 12017138.036 -21494106.600 10 0 60574 49500.00000 0 -7427977.814 9458085.696 -22453420.721 10 0 60574 50400.00000 0 -8580274.342 6891770.016 -22974803.838 10 0 60574 51300.00000 0 -9935387.125 4385359.619 -23048272.823 10 0 60574 52200.00000 0 -11460790.512 2001562.026 -22672609.687 10 0 60574 53100.00000 0 -13113615.842 -203778.786 -21855368.828 10 0 60574 54000.00000 0 -14842350.169 -2183781.929 -20612710.735 10 0 60574 54900.00000 0 -16588914.127 -3902239.899 -18969066.775 10 0 60574 55800.00000 0 -18291030.657 -5334870.123 -16956643.118 10 0 60574 56700.00000 0 -19884784.352 -6470058.075 -14614774.812 10 0 60574 57600.00000 0 -21307263.598 -7309063.931 -11989143.904 10 0 60574 58500.00000 0 -22499174.587 -7865687.332 -9130877.913 10 0 60574 59400.00000 0 -23407317.966 -8165407.604 -6095547.124 10 0 60574 60300.00000 0 -23986825.085 -8244038.517 -2942080.789 10 0 60574 61200.00000 0 -24203061.241 -8145956.689 268376.289 10 0 60574 62100.00000 0 -24033117.567 -7921980.114 3473644.585 10 0 60574 63000.00000 0 -23466830.587 -7626987.366 6611705.478 10 0 60574 63900.00000 0 -22507288.167 -7317378.260 9621889.117 10 0 60574 64800.00000 0 -21170801.900 -7048482.774 12446032.516 10 0 60574 65700.00000 0 -19486347.849 -6872026.631 15029586.750 10 0 60574 66600.00000 0 -17494499.227 -6833759.167 17322653.314 10 0 60574 67500.00000 0 -15245895.178 -6971342.040 19280931.289 10 0 60574 68400.00000 0 -12799308.342 -7312586.445 20866558.691 10 0 60574 69300.00000 0 -10219390.080 -7874112.082 22048833.244 10 0 60574 70200.00000 0 -7574184.939 -8660483.949 22804799.960 10 0 60574 71100.00000 0 -4932515.226 -9663863.605 23119695.028 10 0 60574 72000.00000 0 -2361341.816 -10864190.696 22987237.758 10 0 60574 72900.00000 0 76791.603 -12229889.043 22409764.721 10 0 60574 73800.00000 0 2326126.740 -13719070.159 21398202.614 10 0 60574 74700.00000 0 4339774.404 -15281186.604 19971878.979 10 0 60574 75600.00000 0 6081427.929 -16859068.793 18158172.595 10 0 60574 76500.00000 0 7526635.162 -18391262.568 15992008.108 10 0 60574 77400.00000 0 8663575.545 -19814571.660 13515202.491 10 0 60574 78300.00000 0 9493309.008 -21066699.736 10775673.832 10 0 60574 79200.00000 0 10029485.159 -22088881.615 7826525.937 10 0 60574 80100.00000 0 10297523.893 -22828392.559 4725025.269 10 0 60574 81000.00000 0 10333301.022 -23240828.770 1531489.313 10 0 60574 81900.00000 0 10181393.877 -23292061.030 -1691892.009 10 0 60574 82800.00000 0 9892961.090 -22959776.659 -4882278.285 10 0 60574 83700.00000 0 9523346.972 -22234542.116 -7977418.866 10 0 60574 84600.00000 0 9129513.271 -21120338.866 -10916885.575 10 0 60574 85500.00000 0 8767409.007 -19634547.758 -13643271.804 10 0 60575 0.00000 0 8489392.097 -17807381.113 -16103332.339 10 0 60575 900.00000 0 8341814.247 -15680784.492 -18249041.019 10 0 60575 1800.00000 0 8362874.046 -13306856.613 -20038540.662 10 0 60575 2700.00000 0 8580830.572 -10745850.953 -21436969.914 10 0 60575 3600.00000 0 9012654.928 -8063846.077 -22417146.796 10 0 60575 4500.00000 0 9663177.436 -5330182.505 -22960096.782 10 0 60575 5400.00000 0 10524766.725 -2614774.598 -23055415.171 10 0 60575 6300.00000 0 11577553.962 14589.302 -22701457.438 10 0 60575 7200.00000 0 12790191.950 2494845.314 -21905354.901 10 0 60575 8100.00000 0 14121115.946 4770042.750 -20682856.725 10 0 60575 9000.00000 0 15520251.860 6793424.380 -19058002.742 10 0 60575 9900.00000 0 16931098.616 8529112.930 -17062634.953 10 0 60575 10800.00000 0 18293095.962 9953335.694 -14735758.616 10 0 60575 11700.00000 0 19544177.340 11055138.831 -12122766.644 10 0 60575 12600.00000 0 20623400.028 11836564.590 -9274543.555 10 0 60575 13500.00000 0 21473542.029 12312287.301 -6246467.301 10 0 60575 14400.00000 0 22043557.033 12508726.566 -3097329.026 10 0 60575 15300.00000 0 22290785.141 12462677.694 111807.881 10 0 60575 16200.00000 0 22182827.691 12219519.259 3318787.207 10 0 60575 17100.00000 0 21699008.806 11831074.822 6461555.293 10 0 60575 18000.00000 0 20831363.672 11353219.713 9479349.735 10 0 60575 18900.00000 0 19585113.277 10843333.789 12313859.406 10 0 60575 19800.00000 0 17978606.514 10357706.909 14910334.615 10 0 60575 20700.00000 0 16042732.356 9949005.318 17218627.390 10 0 60575 21600.00000 0 13819826.328 9663904.195 19194143.438 10 0 60575 22500.00000 0 11362115.903 9540984.507 20798689.057 10 0 60575 23400.00000 0 8729767.964 9608981.309 22001198.142 10 0 60575 24300.00000 0 5988617.435 9885456.206 22778326.563 10 0 60575 25200.00000 0 3207668.914 10375949.446 23114903.286 10 0 60575 26100.00000 0 456472.420 11073647.679 23004229.906 10 0 60575 27000.00000 0 -2197520.484 11959582.502 22448222.575 10 0 60575 27900.00000 0 -4691512.803 13003353.310 21457392.783 10 0 60575 28800.00000 0 -6969726.136 14164346.534 20050665.964 10 0 60575 29700.00000 0 -8985475.667 15393402.710 18255039.629 10 0 60575 30600.00000 0 -10702870.303 16634864.074 16105085.459 10 0 60575 31500.00000 0 -12098067.023 17828918.943 13642302.769 10 0 60575 32400.00000 0 -13160026.369 18914146.084 10914333.721 10 0 60575 33300.00000 0 -13890736.479 19830152.927 7974053.617 10 0 60575 34200.00000 0 -14304895.024 20520196.554 4878552.614 10 0 60575 35100.00000 0 -14429061.349 20933676.073 1688027.857 10 0 60575 36000.00000 0 -14300313.711 21028389.542 -1535392.454 10 0 60575 36900.00000 0 -13964467.983 20772457.858 -4728869.571 10 0 60575 37800.00000 0 -13473933.420 20145831.662 -7830094.251 10 0 60575 38700.00000 0 -12885297.122 19141314.892 -10778520.520 10 0 60575 39600.00000 0 -12256741.020 17765059.228 -13516567.064 10 0 60575 40500.00000 0 -11645402.702 16036506.445 -15990760.751 10 0 60575 41400.00000 0 -11104794.046 13987779.613 -18152798.032 10 0 60575 42300.00000 0 -10682389.157 11662547.956 -19960501.797 10 0 60575 43200.00000 0 -10417485.590 9114412.937 -21378653.798 10 0 60575 44100.00000 0 -10339430.844 6404883.719 -22379685.636 10 0 60575 45000.00000 0 -10466290.008 3601027.655 -22944214.591 10 0 60575 45900.00000 0 -10804011.103 772895.119 -23061414.153 10 0 60575 46800.00000 0 -11346122.998 -2009172.797 -22729212.728 10 0 60575 47700.00000 0 -12073977.756 -4677240.672 -21954317.719 10 0 60575 48600.00000 0 -12957525.825 -7168366.556 -20752065.824 10 0 60575 49500.00000 0 -13956589.893 -9426973.758 -19146103.882 10 0 60575 50400.00000 0 -15022582.041 -11406908.762 -17167907.968 10 0 60575 51300.00000 0 -16100590.377 -13073101.256 -14856151.532 10 0 60575 52200.00000 0 -17131746.006 -14402759.328 -12255936.130 10 0 60575 53100.00000 0 -18055769.763 -15386052.710 -9417900.902 10 0 60575 54000.00000 0 -18813591.056 -16026258.603 -6397228.997 10 0 60575 54900.00000 0 -19349928.649 -16339367.091 -3252570.917 10 0 60575 55800.00000 0 -19615725.206 -16353165.663 -44906.086 10 0 60575 56700.00000 0 -19570334.098 -16105843.816 3163635.178 10 0 60575 57600.00000 0 -19183367.600 -15644178.350 6310966.749 10 0 60575 58500.00000 0 -18436130.033 -15021376.940 9336236.221 10 0 60575 59400.00000 0 -17322576.816 -14294671.191 12180986.822 10 0 60575 60300.00000 0 -15849760.006 -13522760.238 14790270.474 10 0 60575 61200.00000 0 -14037742.097 -12763211.545 17113691.933 10 0 60575 62100.00000 0 -11918981.469 -12069926.898 19106365.461 10 0 60575 63000.00000 0 -9537214.278 -11490778.499 20729767.239 10 0 60575 63900.00000 0 -6945877.942 -11065512.880 21952468.562 10 0 60575 64800.00000 0 -4206139.712 -10824009.291 22750736.959 10 0 60575 65700.00000 0 -1384609.763 -10784964.735 23108994.564 10 0 60575 66600.00000 0 1449169.012 -10955060.573 23020125.223 10 0 60575 67500.00000 0 4225353.146 -11328646.067 22485624.256 10 0 60575 68400.00000 0 6876446.102 -11887953.313 21515587.171 10 0 60575 69300.00000 0 9339853.400 -12603836.303 20128536.197 10 0 60575 70200.00000 0 11560240.850 -13437005.302 18351086.169 10 0 60575 71100.00000 0 13491598.753 -14339707.064 16217454.085 10 0 60575 72000.00000 0 15098926.220 -15257782.503 13768819.583 10 0 60575 72900.00000 0 16359464.892 -16133017.117 11052546.577 10 0 60575 73800.00000 0 17263429.514 -16905686.378 8121279.234 10 0 60575 74700.00000 0 17814203.447 -17517189.153 5031928.512 10 0 60575 75600.00000 0 18027989.614 -17912657.560 1844568.139 10 0 60575 76500.00000 0 17932930.445 -18043431.660 -1378738.604 10 0 60575 77400.00000 0 17567733.190 -17869292.343 -4575157.824 10 0 60575 78300.00000 0 16979858.499 -17360355.432 -7682324.774 10 0 60575 79200.00000 0 16223349.291 -16498544.097 -10639578.585 10 0 60575 80100.00000 0 15356392.885 -15278574.570 -13389165.883 10 0 60575 81000.00000 0 14438721.134 -13708411.045 -15877387.755 10 0 60575 81900.00000 0 13528960.558 -11809168.566 -18055665.720 10 0 60575 82800.00000 0 12682046.630 -9614466.645 -19881504.161 10 0 60575 83700.00000 0 11946813.502 -7169260.156 -21319329.204 10 0 60575 84600.00000 0 11363862.581 -4528196.516 -22341186.893 10 0 60575 85500.00000 0 10963801.000 -1753568.536 -22927286.770 99